| time (UTC) | temp F | wind direction | speed knots | gust knots | rain 1hr in | rain 24hr in | rain mn in | humidity % | barometer mb |
| 20260507141541 | 44 | 58 | 4.3 | 7.0 | 0.00 | 0.00 | 0.00 | 69 | 1012.4 |
| 20260507140044 | 44 | 94 | 4.3 | 7.0 | 0.00 | 0.00 | 0.00 | 67 | 1012.5 |
| 20260507134542 | 44 | 96 | 5.2 | 7.0 | 0.00 | 0.00 | 0.00 | 74 | 1012.5 |
| 20260507133036 | 44 | 57 | 4.3 | 7.8 | 0.00 | 0.00 | 0.00 | 69 | 1012.5 |
| 20260507131504 | 44 | 57 | 7.0 | 8.7 | 0.00 | 0.00 | 0.00 | 68 | 1012.4 |
| 20260507130110 | 45 | 99 | 2.6 | 5.2 | 0.00 | 0.00 | 0.00 | 71 | 1012.5 |
| 20260507124555 | 45 | 98 | 0.0 | 5.2 | 0.00 | 0.00 | 0.00 | 75 | 1012.3 |
| 20260507123051 | 44 | 85 | 0.9 | 6.1 | 0.00 | 0.00 | 0.00 | 74 | 1012.4 |
| 20260507121558 | 44 | 79 | 2.6 | 7.0 | 0.00 | 0.00 | 0.00 | 78 | 1012.5 |
| 20260507120046 | 44 | 79 | 1.7 | 4.3 | 0.00 | 0.00 | 0.00 | 80 | 1012.4 |
| 20260507114546 | 41 | 79 | 3.5 | 5.2 | 0.00 | 0.00 | 0.00 | 82 | 1012.3 |
| 20260507113038 | 41 | 79 | 1.7 | 4.3 | 0.00 | 0.00 | 0.00 | 82 | 1012.2 |
| 20260507111534 | 44 | 79 | 0.9 | 2.6 | 0.00 | 0.00 | 0.00 | 76 | 1012.1 |
| 20260507110031 | 0 | 0.0 | 0.0 | 0.00 | 0.00 | 0.00 | 1011.9 | ||
| 20260507104556 | 0 | 0.0 | 0.0 | 0.00 | 0.00 | 0.00 | 1011.8 | ||
| 20260507103052 | 0 | 0.0 | 0.0 | 0.00 | 0.00 | 0.00 | 1011.9 | ||
| 20260507101546 | 0 | 0.0 | 0.0 | 0.00 | 0.00 | 0.00 | 1011.9 | ||
| 20260507100042 | 0 | 0.0 | 0.0 | 0.00 | 0.00 | 0.00 | 1011.9 | ||
| 20260507094539 | 0 | 0.0 | 0.0 | 0.00 | 0.00 | 0.00 | 1012.0 | ||
| 20260507093033 | 39 | 352 | 3.5 | 4.3 | 0.00 | 0.00 | 0.00 | 85 | 1012.0 |
| 20260507091533 | 39 | 352 | 2.6 | 5.2 | 0.00 | 0.00 | 0.00 | 85 | 1012.1 |
| 20260507090033 | 39 | 360 | 2.6 | 7.0 | 0.00 | 0.00 | 0.00 | 84 | 1012.2 |
| 20260507084531 | 40 | 348 | 2.6 | 6.1 | 0.00 | 0.00 | 0.00 | 85 | 1012.1 |
| 20260507084528 | 40 | 349 | 2.6 | 6.1 | 0.00 | 0.00 | 0.00 | 85 | 1012.1 |
| 20260507083027 | 39 | 340 | 1.7 | 5.2 | 0.00 | 0.00 | 0.00 | 86 | 1012.0 |
| 20260507081539 | 38 | 350 | 1.7 | 4.3 | 0.00 | 0.00 | 0.00 | 85 | 1012.0 |
| 20260507080020 | 37 | 314 | 1.7 | 3.5 | 0.00 | 0.00 | 0.00 | 82 | 1012.1 |
| 20260507074541 | 37 | 311 | 2.6 | 5.2 | 0.00 | 0.00 | 0.00 | 81 | 1012.1 |
| 20260507073016 | 37 | 308 | 0.9 | 5.2 | 0.00 | 0.00 | 0.00 | 81 | 1012.1 |
| 20260507071513 | 38 | 305 | 2.6 | 5.2 | 0.00 | 0.00 | 0.00 | 81 | 1012.2 |
| 20260507070018 | 39 | 298 | 3.5 | 6.1 | 0.00 | 0.00 | 0.00 | 80 | 1012.1 |
| 20260507064510 | 40 | 94 | 3.5 | 6.1 | 0.00 | 0.00 | 0.00 | 83 | 1012.2 |
| 20260507063009 | 40 | 94 | 1.7 | 2.6 | 0.00 | 0.00 | 0.00 | 81 | 1012.2 |
| 20260507061507 | 41 | 94 | 1.7 | 4.3 | 0.00 | 0.00 | 0.00 | 78 | 1012.4 |
| 20260507060006 | 45 | 93 | 3.5 | 5.2 | 0.00 | 0.00 | 0.00 | 73 | 1012.4 |
| 20260507054505 | 45 | 94 | 2.6 | 7.0 | 0.00 | 0.00 | 0.00 | 74 | 1012.4 |
| 20260507053003 | 46 | 93 | 4.3 | 7.0 | 0.00 | 0.00 | 0.00 | 74 | 1012.4 |
| 20260507051503 | 46 | 96 | 7.0 | 8.7 | 0.00 | 0.00 | 0.00 | 75 | 1012.4 |
| 20260507050006 | 46 | 98 | 8.7 | 10.4 | 0.00 | 0.00 | 0.00 | 76 | 1012.3 |
| 20260507044502 | 47 | 74 | 8.7 | 10.4 | 0.00 | 0.00 | 0.00 | 75 | 1012.4 |
| 20260507043103 | 46 | 74 | 10.4 | 12.2 | 0.00 | 0.00 | 0.00 | 75 | 1012.4 |
| 20260507041603 | 47 | 72 | 9.6 | 11.3 | 0.00 | 0.00 | 0.00 | 75 | 1012.4 |
| 20260507041502 | 47 | 72 | 10.4 | 11.3 | 0.00 | 0.00 | 0.00 | 73 | 1012.4 |
| 20260507040058 | 45 | 36 | 1.7 | 4.3 | 0.00 | 0.00 | 0.00 | 73 | 1012.3 |
| 20260507034601 | 46 | 35 | 2.6 | 3.5 | 0.00 | 0.00 | 0.00 | 70 | 1012.3 |
| 20260507033103 | 47 | 36 | 0.0 | 1.7 | 0.00 | 0.00 | 0.00 | 59 | 1012.3 |
| 20260507031606 | 48 | 35 | 0.0 | 3.5 | 0.00 | 0.00 | 0.00 | 59 | 1012.3 |
| 20260507030057 | 48 | 35 | 7.0 | 9.6 | 0.00 | 0.00 | 0.00 | 63 | 1012.4 |
| 20260507024554 | 48 | 19 | 6.1 | 8.7 | 0.00 | 0.00 | 0.00 | 59 | 1012.4 |
| 20260507023022 | 48 | 20 | 8.7 | 11.3 | 0.00 | 0.00 | 0.00 | 65 | 1012.5 |
| 20260507021523 | 47 | 34 | 13.9 | 17.4 | 0.00 | 0.00 | 0.00 | 68 | 1012.2 |
| 20260507020021 | 47 | 33 | 13.9 | 15.6 | 0.00 | 0.00 | 0.00 | 75 | 1012.3 |
| 20260507014530 | 46 | 33 | 16.5 | 20.0 | 0.00 | 0.00 | 0.00 | 77 | 1012.2 |
| 20260507013018 | 47 | 30 | 16.5 | 21.7 | 0.00 | 0.00 | 0.00 | 76 | 1012.0 |
| 20260507011519 | 50 | 15 | 11.3 | 19.1 | 0.00 | 0.00 | 0.00 | 65 | 1011.9 |
| 20260507010015 | 51 | 300 | 9.6 | 20.0 | 0.00 | 0.00 | 0.00 | 44 | 1011.6 |
| 20260507004518 | 51 | 280 | 4.3 | 9.6 | 0.00 | 0.00 | 0.00 | 43 | 1011.4 |
| 20260507003014 | 51 | 295 | 6.1 | 8.7 | 0.00 | 0.00 | 0.00 | 44 | 1011.2 |
| 20260507001521 | 51 | 305 | 2.6 | 7.0 | 0.00 | 0.00 | 0.00 | 45 | 1011.1 |
| 20260507000010 | 51 | 283 | 3.5 | 6.1 | 0.00 | 0.00 | 0.00 | 44 | 1010.9 |
| 20260506234513 | 52 | 267 | 4.3 | 9.6 | 0.00 | 0.00 | 0.00 | 43 | 1010.9 |
| 20260506233010 | 52 | 261 | 3.5 | 7.0 | 0.00 | 0.00 | 0.00 | 43 | 1010.8 |
| 20260506231509 | 52 | 263 | 3.5 | 7.8 | 0.00 | 0.00 | 0.00 | 42 | 1010.8 |
| 20260506230007 | 52 | 263 | 2.6 | 7.0 | 0.00 | 0.00 | 0.00 | 43 | 1010.8 |
| 20260506224507 | 52 | 264 | 2.6 | 5.2 | 0.00 | 0.00 | 0.00 | 43 | 1010.9 |
| 20260506223006 | 52 | 264 | 3.5 | 5.2 | 0.00 | 0.00 | 0.00 | 42 | 1011.0 |
| 20260506221506 | 52 | 301 | 5.2 | 9.6 | 0.00 | 0.00 | 0.00 | 43 | 1011.1 |
| 20260506220012 | 52 | 280 | 3.5 | 9.6 | 0.00 | 0.00 | 0.00 | 43 | 1011.0 |
| 20260506214502 | 52 | 285 | 6.1 | 10.4 | 0.00 | 0.00 | 0.00 | 42 | 1010.9 |
| 20260506213002 | 52 | 284 | 5.2 | 9.6 | 0.00 | 0.00 | 0.00 | 41 | 1010.9 |
| 20260506211505 | 52 | 309 | 6.1 | 9.6 | 0.00 | 0.00 | 0.00 | 43 | 1011.0 |
| 20260506210059 | 52 | 270 | 3.5 | 11.3 | 0.00 | 0.00 | 0.00 | 42 | 1011.0 |
| 20260506204558 | 52 | 262 | 5.2 | 8.7 | 0.00 | 0.00 | 0.00 | 42 | 1010.9 |
| 20260506203059 | 52 | 302 | 3.5 | 10.4 | 0.00 | 0.00 | 0.00 | 42 | 1011.0 |
| 20260506201558 | 52 | 281 | 5.2 | 8.7 | 0.00 | 0.00 | 0.00 | 42 | 1011.1 |
| 20260506200055 | 52 | 276 | 2.6 | 8.7 | 0.00 | 0.00 | 0.00 | 42 | 1011.1 |
| 20260506194611 | 51 | 302 | 5.2 | 10.4 | 0.00 | 0.00 | 0.00 | 43 | 1011.3 |
| 20260506193103 | 51 | 262 | 4.3 | 11.3 | 0.00 | 0.00 | 0.00 | 42 | 1011.3 |
| 20260506191551 | 51 | 297 | 5.2 | 13.0 | 0.00 | 0.00 | 0.00 | 42 | 1011.4 |
| 20260506190051 | 51 | 276 | 5.2 | 11.3 | 0.00 | 0.00 | 0.00 | 42 | 1011.4 |
| 20260506184544 | 51 | 292 | 3.5 | 11.3 | 0.00 | 0.00 | 0.00 | 42 | 1011.5 |
| 20260506183045 | 51 | 306 | 4.3 | 12.2 | 0.00 | 0.00 | 0.00 | 42 | 1011.5 |
| 20260506183043 | 51 | 307 | 4.3 | 12.2 | 0.00 | 0.00 | 0.00 | 42 | 1011.5 |
| 20260506181540 | 51 | 269 | 3.5 | 13.0 | 0.00 | 0.00 | 0.00 | 44 | 1011.5 |
| 20260506180046 | 50 | 279 | 3.5 | 8.7 | 0.00 | 0.00 | 0.00 | 45 | 1011.7 |
| 20260506174531 | 49 | 269 | 2.6 | 7.8 | 0.00 | 0.00 | 0.00 | 53 | 1011.8 |
| 20260506173027 | 47 | 110 | 6.1 | 7.8 | 0.00 | 0.00 | 0.00 | 58 | 1011.9 |
| 20260506171527 | 46 | 103 | 8.7 | 9.6 | 0.00 | 0.00 | 0.00 | 66 | 1011.8 |
| 20260506170023 | 46 | 110 | 7.8 | 9.6 | 0.00 | 0.00 | 0.00 | 65 | 1011.8 |
| 20260506164518 | 45 | 108 | 6.1 | 8.7 | 0.00 | 0.00 | 0.00 | 67 | 1012.2 |
| 20260506163030 | 44 | 84 | 7.0 | 8.7 | 0.00 | 0.00 | 0.00 | 69 | 1012.2 |
| 20260506161513 | 44 | 99 | 8.7 | 9.6 | 0.00 | 0.00 | 0.00 | 71 | 1012.2 |
| 20260506160016 | 44 | 101 | 6.1 | 7.8 | 0.00 | 0.00 | 0.00 | 68 | 1012.4 |
| 20260506154543 | 43 | 106 | 7.8 | 7.8 | 0.00 | 0.00 | 0.00 | 69 | 1012.5 |
| 20260506153031 | 43 | 96 | 4.3 | 6.1 | 0.00 | 0.00 | 0.00 | 69 | 1012.6 |
| 20260506151527 | 42 | 98 | 3.5 | 5.2 | 0.00 | 0.00 | 0.00 | 67 | 1012.5 |
| 20260506150027 | 42 | 100 | 2.6 | 6.1 | 0.00 | 0.00 | 0.00 | 69 | 1012.6 |
| 20260506144524 | 41 | 84 | 3.5 | 6.1 | 0.00 | 0.00 | 0.00 | 69 | 1012.5 |
| 20260506143019 | 41 | 39 | 3.5 | 7.0 | 0.00 | 0.00 | 0.00 | 69 | 1012.3 |